Home   Weather   Ulm   Past weeks

Flag for Germany Past Weather in Ulm, Baden-Württemberg, Germany — Yesterday and Last 2 Weeks

Now
19 °F

Light snow. Partly sunny.


Feels Like: 6 °F
Forecast: 17 / 20 °F
Wind: 14 mph from Northeast

Location: Laupheim Airport

Current Time: Jan 17, 2017 at 2:28:20 pm

Latest Report: Jan 17, 2017 at 1:20 pm


Visibility: N/A

Pressure: 30.36 "Hg

Humidity: 86%

Dew Point: 16 °F

Location of UlmLocation

Past Weather in Ulm — Graph

°F

Ulm Temperature Yesterday

Maximum temperature yesterday: 25 °F (at 3:13 am)
Minimum temperature yesterday: 19 °F (at 5:20 am)
Average temperature yesterday: 23 °F

High & Low Weather Summary for the Past Weeks

 TemperatureHumidityPressure
High41 °F (Jan 13, 1:20 am)100% (Jan 2, 4:20 pm)30.66 "Hg (Jan 2, 4:20 pm)
Low0 °F (Jan 7, 3:20 am)51% (Jan 13, 11:20 am)29.39 "Hg (Jan 13, 1:20 am)
Average27 °F85%30.10 "Hg
* Reported Jan 2 12:20 pm — Jan 17 12:20 pm, Ulm, Weather by CustomWeather, © 2017

Note: Actual official high and low records may vary slightly from our data, if they occured in-between our weather recording intervals... More about our weather records

Advertising

Ulm Weather History for the Previous 24 Hours

Scroll right to see more
 ConditionsComfort  
Time TempWeatherWind HumidityBarometerVisibility
12:20 pm
Tue, Jan 17
19 °FBroken clouds.13 mph86%30.36 "HgN/A
11:20 am19 °FPartly sunny.14 mph79%30.39 "HgN/A
10:23 am19 °FPartly sunny.15 mph79%30.39 "HgN/A
9:20 am18 °FPartly sunny.10 mph86%30.36 "HgN/A
8:20 am18 °FPartly sunny.13 mph86%30.36 "HgN/A
7:20 am18 °FPassing clouds.13 mph86%30.33 "HgN/A
6:20 am19 °FPassing clouds.12 mph86%30.33 "HgN/A
5:20 am19 °FPassing clouds.14 mph86%30.30 "Hg6 mi
4:20 am21 °FLight snow. Passing clouds.16 mph86%30.27 "Hg6 mi
3:20 am23 °FPassing clouds.14 mph86%30.27 "Hg6 mi
2:20 am23 °FPassing clouds.10 mph86%30.27 "Hg6 mi
1:20 am23 °FLight snow. Passing clouds.7 mph86%30.24 "HgN/A
12:20 am23 °FLight snow. Passing clouds.6 mph86%30.24 "HgN/A
11:20 pm
Mon, Jan 16
23 °FLight snow. Passing clouds.9 mph86%30.24 "HgN/A
10:20 pm21 °FPassing clouds.5 mph93%30.24 "HgN/A
9:20 pm21 °FPassing clouds.3 mph86%30.24 "HgN/A
8:20 pm21 °FPassing clouds.2 mph86%30.21 "HgN/A
7:20 pm19 °FPassing clouds.2 mph86%30.21 "HgN/A
6:20 pm21 °FPassing clouds.2 mph80%30.18 "HgN/A
5:20 pm21 °FPassing clouds.5 mph74%30.18 "HgN/A
4:20 pm23 °FPartly sunny.6 mph74%30.15 "HgN/A
3:41 pm25 °FLight snow. Broken clouds.5 mph80%30.15 "HgN/A
3:20 pm25 °FLight snow. Ice fog.6 mph80%30.15 "Hg3 mi
2:20 pm25 °FBroken clouds.7 mph86%30.12 "HgN/A
Weather by CustomWeather, © 2017

See weather overviewHow to use our weather pages